OneWeb SL0027

operational
NORAD ID: 45432 Int'l Des: 2020-020 Owner: ONEWEB Country: UK Constellation: oneweb
LEOCIRCULARPOLARONEWEB_TYPE

About OneWeb SL0027

Description loading...

Live Position

Loading 3D Globe...

Upcoming Passes

Altitude History

Altitude vs Time

uPlot chart will show altitude changes over time

Two-Line Element Set

1 45432U 20020J 25303.75083142 .00000051 00000-0 98050-4 0 9997
2 45432 87.9128 51.4617 0002039 92.6684 267.4681 13.17650524276146
Epoch: Oct 30, 2025 • Age: 12 hours

Current Status

Altitude 1199.9 km
Velocity 7.25 km/s
Sub-Earth Point -14.32°S, 103.05°E
Launch Date Mar 21, 2020
Age 5.6 years
Type internet

Technical Details

Classification Payload
Mass 148.00 kg
Dry Mass 140.00 kg
Total Mass 148.00 kg
Length 1.30 m
Diameter 1.00 m
Span 5.00 m
Shape Trapezoid+2 pan
Manufacturer ONEWUS
Bus Type ARROW
Phase Status In Orbit
Owner/State ONEWEB/UK

Large Constellations

Loading constellations...